Regional Weather Roundup
Issued by NWS

Home | Current Version | Previous Version | Text Only | Print | Product List | Glossary On
Versions: 1 2 3 4 5 6 7 8 9 10 11 12 13 14 15 16 17 18 19 20 21 22 23 24 25 26 27
000
ASUS46 KSEW 230010
RWRWA

WASHINGTON REGIONAL WEATHER ROUNDUP
NATIONAL WEATHER SERVICE SEATTLE WA
500 PM PDT WED OCT 22 2014

NOTE:"FAIR" INDICATES FEW OR NO CLOUDS BELOW 12,000 FEET WITH NO
SIGNIFICANT WEATHER AND/OR OBSTRUCTIONS TO VISIBILITY.

WAZ505-507>509-230100-
SEATTLE, TACOMA, EVERETT, AND VICINITY

CITY           SKY/WX    TMP DP  RH WIND       PRES   REMARKS
EVERETT        LGT RAIN  54  52  93 SE9       29.61F
6HR MIN TEMP:  54; 6HR MAX TEMP:  56; 6HR PCP:  0.24;

BOEING FIELD   LGT RAIN  58  53  84 SE9       29.61F
6HR MIN TEMP:  58; 6HR MAX TEMP:  59; 6HR PCP:  0.47;

RENTON         LGT RAIN  55  54  96 VRB7      29.61F FOG
6HR MIN TEMP:  55; 6HR MAX TEMP:  56; 6HR PCP:  0.39;

SEATAC AIRPORT LGT RAIN  56  53  90 SE15G22   29.63F
6HR MIN TEMP:  56; 6HR MAX TEMP:  57; 6HR PCP:  0.49;

JBLM-MCCHORD   LGT RAIN  56  55  98 SE9       29.61F
6HR MIN TEMP:  56; 6HR MAX TEMP:  57; 6HR PCP:  0.41;

PUYALLUP       NOT AVBL
JBLM-FT LEWIS  DRIZZLE   56  55  96 SE12      29.59F
6HR MIN TEMP:  56; 6HR MAX TEMP:  57; 6HR PCP:  0.38;

TACOMA NARROWS LGT RAIN  56  53  90 VRB5      29.60F
6HR MIN TEMP:  55; 6HR MAX TEMP:  57; 6HR PCP:  0.46;

$$

WAZ001-503-506-510-514-515-230100-
NORTH INTERIOR

CITY           SKY/WX    TMP DP  RH WIND       PRES   REMARKS
BELLINGHAM     LGT RAIN  57  50  77 SE9       29.58F
6HR MIN TEMP:  56; 6HR MAX TEMP:  59; 6HR PCP:  0.01;

FRIDAY HARBOR  LGT RAIN  54  53  97 SE10G18   29.57F
6HR MIN TEMP:  54; 6HR MAX TEMP:  56; 6HR PCP: TRACE;

EASTSOUND      RAIN      55  54  94 S7G18     29.55F
PORT ANGELES     N/A    N/A N/A N/A MISG      29.55F
NAS WHIDBEY    RAIN      58  54  86 SE16      29.58F FOG
6HR MIN TEMP:  57; 6HR MAX TEMP:  60; 6HR PCP:  0.15;

BURLINGTON     CLOUDY   N/A N/A N/A SE7       29.62S
$$

WAZ020-022-039-040-504-511-512-230100-
SOUTHWEST INTERIOR

CITY           SKY/WX    TMP DP  RH WIND       PRES   REMARKS
SHELTON        LGT RAIN  55  53  93 SE6       29.56F
6HR MIN TEMP:  55; 6HR MAX TEMP:  56; 6HR PCP:  0.52;

OLYMPIA        LGT RAIN  56  53  90 S13       29.59F
6HR MIN TEMP:  56; 6HR MAX TEMP:  57; 6HR PCP:  0.36;

CHEHALIS       DRIZZLE   57  55  94 VRB7G13   29.62S
KELSO          CLOUDY    55  52  88 SE10G22   29.69F
6HR MIN TEMP:  55; 6HR MAX TEMP:  57; 6HR PCP:  0.46;

VANCOUVER      RAIN      56  54  93 E5        29.72R FOG
6HR MIN TEMP:  56; 6HR MAX TEMP:  57; 6HR PCP:  1.34;

SCAPPOOSE, OR  RAIN      56  54  93 SE9       29.69F FOG
6HR MIN TEMP:  56; 6HR MAX TEMP:  58; 6HR PCP:  0.37;

PORTLAND, OR   LGT RAIN  56  55  97 SE6       29.73R FOG
6HR MIN TEMP:  56; 6HR MAX TEMP:  59; 6HR PCP:  1.51;

$$

WAZ021-516-517-230100-
WASHINGTON COAST

CITY           SKY/WX    TMP DP  RH WIND       PRES   REMARKS
FORKS          RAIN      54  53  97 E3        29.51F FOG
6HR MIN TEMP:  54; 6HR MAX TEMP:  58; 6HR PCP:  0.17;

HOQUIAM        LGT RAIN  57  56  96 SE17      29.56F FOG
6HR MIN TEMP:  56; 6HR MAX TEMP:  58; 6HR PCP:  0.52;

ASTORIA, OR    LGT RAIN  58  54  86 S7        29.59F
6HR MIN TEMP:  57; 6HR MAX TEMP:  59; 6HR PCP:  0.35;

$$

WAZ019-023-024-040-518-519-230100-
CASCADE MOUNTAINS AND COLUMBIA GORGE

CITY           SKY/WX    TMP DP  RH WIND       PRES   REMARKS
STAMPEDE PASS  NOT AVBL
TROUTDALE, OR  RAIN      57  55  93 W6        29.73R FOG
6HR MIN TEMP:  56; 6HR MAX TEMP:  57; 6HR PCP:  0.79;

THE DALLES, OR CLOUDY    57  53  86 N5        29.68F
6HR MIN TEMP:  55; 6HR MAX TEMP:  58; 6HR PCP:  0.01;

$$

WAZ026-027-041>044-520-521-230100-
EAST SLOPES

CITY           SKY/WX    TMP DP  RH WIND       PRES   REMARKS
OMAK           LGT RAIN  50  48  93 SW5       29.73F
6HR MIN TEMP:  48; 6HR MAX TEMP:  50; 6HR PCP:  0.40;

WENATCHEE      LGT RAIN  51  46  83 W3        29.71F
6HR MIN TEMP:  51; 6HR MAX TEMP:  53; 6HR PCP:  0.02;

ELLENSBURG     LGT RAIN  54  50  86 E3        29.69F FOG
6HR MIN TEMP:  54; 6HR MAX TEMP:  58; 6HR PCP:  0.05;

YAKIMA         LGT RAIN  58  51  78 NE3       29.68F
6HR MIN TEMP:  57; 6HR MAX TEMP:  61; 6HR PCP: TRACE;

$$

WAZ028-034-035-230100-
COLUMBIA BASIN

CITY           SKY/WX    TMP DP  RH WIND       PRES   REMARKS
EPHRATA        LGT RAIN  54  52  93 CALM      29.72F
6HR MIN TEMP:  52; 6HR MAX TEMP:  55; 6HR PCP:  0.21;

MOSES LAKE     LGT RAIN  55  52  89 SE7       29.73F
6HR MIN TEMP:  53; 6HR MAX TEMP:  56; 6HR PCP:  0.23;

PASCO          LGT RAIN  67  52  58 S8        29.72F
6HR MIN TEMP:  65; 6HR MAX TEMP:  71; 6HR PCP: TRACE;

HERMISTON, OR  LGT RAIN  64  55  72 E5        29.71F
6HR MIN TEMP:  63; 6HR MAX TEMP:  71; 6HR PCP:  0.01;

$$

WAZ036>038-230100-
NORTHEAST WASHINGTON

CITY           SKY/WX    TMP DP  RH WIND       PRES   REMARKS
SPOKANE GEIGER LGT RAIN  53  49  86 CALM      29.81F
6HR MIN TEMP:  53; 6HR MAX TEMP:  60; 6HR PCP:  0.03;

SPOKANE FELTS  CLOUDY    56  48  74 CALM      29.82F
6HR MIN TEMP:  56; 6HR MAX TEMP:  64; 6HR PCP: TRACE;

FAIRCHILD AFB  LGT RAIN  52  50  92 E6        29.81F
6HR MIN TEMP:  52; 6HR MAX TEMP:  58; 6HR PCP:  0.06;

COEURDALENE,ID CLOUDY    57  43  58 CALM      29.81F
6HR MIN TEMP:  50; 6HR MAX TEMP:  57;

DEER PARK      RAIN      49  48  97 NE5       29.83F FOG
6HR MIN TEMP:  49; 6HR MAX TEMP:  52; 6HR PCP:  0.20;

$$

WAZ029>033-230100-
SOUTHEAST WASHINGTON

CITY           SKY/WX    TMP DP  RH WIND       PRES   REMARKS
PULLMAN        CLOUDY    61  36  39 SE12      29.83F
6HR MIN TEMP:  55; 6HR MAX TEMP:  62;

LEWISTON, ID   CLOUDY    69  34  27 S17       29.79F
6HR MIN TEMP:  57; 6HR MAX TEMP:  69;

WALLA WALLA    CLOUDY    70  36  28 S20       29.76S
6HR MIN TEMP:  68; 6HR MAX TEMP:  74; 6HR PCP: TRACE;

PENDLETON, OR  CLOUDY    67  41  38 S14       29.74S
6HR MIN TEMP:  59; 6HR MAX TEMP:  67; 6HR PCP:  0.08;

$$



USA.gov is the U.S. government's official web portal to all federal, state and local government web resources and services.